This demonstration page uses our WeatherBlox Daily Observations layout. Learn more.

Left ArrowRight Arrow

40.92945, -100.16068

Hourly Observations for January 9, 2021

Temp ( °F °C ) Dew Point ( °F °C ) Humidity (%) Winds ( mph kmh ) Pressure ( in mb ) Visibility ( mi km ) Precip ( " mm )
12:15 am 00:15 Cloudy with Mist and Fog 33 0.5 32 0.2 98 98 S 5 7 30.37 1029 1 1 0.00 0.00
12:35 am 00:35 Cloudy with Fog 33 0.5 32 0.2 98 98 SSW 3 6 30.36 1028 1 1 0.00 0.00
12:55 am 00:55 Cloudy with Fog 33 0.5 32 0.2 98 98 SSW 3 6 30.36 1028 1 1 0.00 0.00
1:15 am 01:15 Cloudy with Fog 33 0.5 33 0.3 99 99 SSW 3 6 30.36 1028 1 1 0.00 0.00
1:35 am 01:35 Cloudy with Mist and Fog 33 0.5 32 0.2 98 98 SSW 5 7 30.36 1028 1 1 0.00 0.00
1:55 am 01:55 Cloudy with Mist and Fog 33 0.5 32 0.2 98 98 SSW 5 7 30.36 1028 1 2 0.00 0.00
2:15 am 02:15 Cloudy with Fog 33 0.5 33 0.3 99 99 SSW 5 7 30.36 1028 1 1 0.00 0.00
2:35 am 02:35 Cloudy with Fog 33 0.5 33 0.3 99 99 SW 6 9 30.37 1029 1 1 0.00 0.00
2:55 am 02:55 Cloudy with Mist and Fog 33 0.5 33 0.3 99 99 SW 5 7 30.37 1029 1 1 0.00 0.00
3:15 am 03:15 Cloudy with Mist and Fog 33 0.5 33 0.3 99 99 SSW 3 6 30.37 1029 3 5 0.00 0.00
3:35 am 03:35 Cloudy with Mist and Fog 33 0.5 32 0.2 98 98 S 5 7 30.37 1029 5 8 0.00 0.00
3:55 am 03:55 Cloudy with Mist and Fog 33 0.5 32 0.2 98 98 S 5 7 30.37 1029 5 8 0.00 0.00
4:15 am 04:15 Cloudy with Mist and Fog 33 0.5 32 0.1 97 97 SSW 3 6 30.37 1029 5 8 0.00 0.00
4:35 am 04:35 Cloudy with Light Snow 33 0.3 32 0.1 99 99 Calm 30.37 1029 5 8 0.00 0.00
4:55 am 04:55 Cloudy with Mist and Fog 33 0.5 32 0.1 97 97 Calm 30.37 1029 5 8 0.00 0.00
5:15 am 05:15 Cloudy with Mist and Fog 33 0.5 32 0.1 97 97 Calm 30.38 1029 5 8 0.00 0.00
5:35 am 05:35 Cloudy with Mist and Fog 33 0.5 32 0.1 97 97 Calm 30.38 1029 5 8 0.00 0.00
5:55 am 05:55 Cloudy with Mist and Fog 33 0.5 32 0 96 96 Calm 30.38 1029 5 8 0.00 0.00
6:15 am 06:15 Cloudy with Mist and Fog 33 0.5 32 0.1 97 97 Calm 30.39 1029 5 8 0.00 0.00
6:35 am 06:35 Cloudy with Drizzle 33 0.5 32 0.2 98 98 WSW 3 6 30.39 1029 2 2 0.00 0.00
6:55 am 06:55 Cloudy with Light Rain 33 0.6 33 0.3 98 98 Calm 30.40 1030 1 1 0.00 0.00
7:15 am 07:15 Cloudy with Drizzle 33 0.5 33 0.3 99 99 Calm 30.40 1030 1 2 0.00 0.00
7:35 am 07:35 Cloudy with Drizzle 33 0.6 33 0.5 99 99 Calm 30.40 1030 2 3 0.00 0.00
7:55 am 07:55 Cloudy with Drizzle 33 0.6 33 0.5 99 99 Calm 30.40 1030 2 3 0.00 0.00
8:15 am 08:15 Cloudy with Rain 33 0.6 33 0.5 99 99 SW 3 6 30.41 1030 2 2 0.00 0.00
8:35 am 08:35 Cloudy with Light Rain 33 0.7 33 0.5 99 99 Calm 30.41 1030 1 2 0.00 0.00
8:55 am 08:55 Cloudy with Drizzle 33 0.7 33 0.5 99 99 Calm 30.42 1030 1 1 0.00 0.00
9:15 am 09:15 Cloudy with Mist and Fog 33 0.7 33 0.5 99 99 NNW 7 11 30.43 1031 1 2 0.00 0.00
9:35 am 09:35 Cloudy with Mist and Fog 33 0.6 33 0.4 99 99 NNW 7 11 30.43 1031 1 2 0.00 0.00
9:55 am 09:55 Cloudy with Mist and Fog 33 0.6 33 0.5 99 99 N 6 9 30.43 1031 2 3 0.00 0.00
10:15 am 10:15 Cloudy with Mist and Fog 33 0.6 33 0.4 99 99 N 5 7 30.43 1031 2 3 0.00 0.00
10:35 am 10:35 Cloudy with Mist and Fog 33 0.6 33 0.5 99 99 N 3 6 30.44 1031 2 3 0.00 0.00
10:55 am 10:55 Cloudy with Mist and Fog 33 0.8 33 0.5 98 98 N 3 6 30.44 1031 3 4 0.00 0.00
11:15 am 11:15 Cloudy with Mist and Fog 34 0.9 33 0.5 97 97 NNE 3 6 30.44 1031 4 6 0.00 0.00
11:35 am 11:35 Cloudy 34 0.9 33 0.4 97 97 N 7 11 30.43 1030 7 11 0.00 0.00
11:55 am 11:55 Cloudy 34 1 32 0 93 93 N 7 11 30.43 1030 10 16 0.00 0.00
12:15 pm 12:15 Cloudy 34 1 31 -0.4 90 90 N 6 9 30.43 1030 10 16 0.00 0.00
12:35 pm 12:35 Cloudy 34 1 31 -0.5 90 90 N 7 11 30.42 1030 10 16 0.00 0.00
12:55 pm 12:55 Cloudy 34 1 31 -0.8 88 88 N 6 9 30.41 1030 10 16 0.00 0.00
1:15 pm 13:15 Cloudy 34 1 31 -0.6 89 89 N 5 7 30.41 1030 10 16 0.00 0.00
1:35 pm 13:35 Cloudy 35 1.4 31 -0.4 88 88 N 3 6 30.39 1029 10 16 0.00 0.00
1:55 pm 13:55 Cloudy 35 1.5 31 -0.6 86 86 Calm 30.39 1029 10 16 0.00 0.00
2:15 pm 14:15 Cloudy 35 1.7 31 -0.4 86 86 N 3 6 30.39 1029 10 16 0.00 0.00
2:35 pm 14:35 Cloudy 36 2 31 -0.3 85 85 NNE 3 6 30.39 1029 10 16 0.00 0.00
2:55 pm 14:55 Cloudy 36 2.2 32 -0.1 85 85 Calm 30.39 1029 10 16 0.00 0.00
3:15 pm 15:15 Cloudy 36 2.4 32 -0.2 83 83 Calm 30.38 1029 10 16 0.00 0.00
3:35 pm 15:35 Cloudy 36 2.3 31 -0.4 83 83 NNW 3 6 30.40 1029 10 16 0.00 0.00
3:55 pm 15:55 Cloudy 36 2 30 -1 81 81 N 9 15 30.40 1029 10 16 0.00 0.00
4:15 pm 16:15 Cloudy 35 1.9 30 -1.1 81 81 NNW 7 11 30.41 1030 10 16 0.00 0.00
4:35 pm 16:35 Cloudy 35 1.8 30 -1.2 81 81 NNW 6 9 30.41 1030 10 16 0.00 0.00
4:55 pm 16:55 Cloudy 35 1.7 31 -0.7 84 84 N 7 11 30.42 1030 10 16 0.00 0.00
5:15 pm 17:15 Cloudy 35 1.5 31 -0.6 86 86 N 6 9 30.42 1030 10 16 0.00 0.00
5:35 pm 17:35 Cloudy 34 1.3 31 -0.5 88 88 N 3 6 30.43 1030 10 16 0.00 0.00
5:55 pm 17:55 Cloudy 34 1.2 30 -1 85 85 N 7 11 30.44 1031 10 16 0.00 0.00
6:15 pm 18:15 Cloudy 34 1 30 -1 87 87 N 5 7 30.45 1031 10 16 0.00 0.00
6:35 pm 18:35 Cloudy 34 0.9 31 -0.8 89 89 NW 3 6 30.45 1031 10 16 0.00 0.00
6:55 pm 18:55 Cloudy 33 0.8 30 -1 88 88 NNW 6 9 30.45 1031 10 16 0.00 0.00
7:15 pm 19:15 Cloudy 33 0.7 30 -1.2 87 87 N 7 11 30.45 1031 10 16 0.00 0.00
7:35 pm 19:35 Cloudy 33 0.6 29 -1.6 85 85 N 9 15 30.45 1031 10 16 0.00 0.00
7:55 pm 19:55 Cloudy 33 0.6 29 -1.9 84 84 NNW 7 11 30.45 1031 10 16 0.00 0.00
8:15 pm 20:15 Cloudy 33 0.5 28 -2.1 83 83 N 7 11 30.45 1031 10 16 0.00 0.00
8:35 pm 20:35 Mostly Cloudy 32 0 28 -2.1 86 86 N 5 7 30.47 1032 10 16 0.00 0.00
8:55 pm 20:55 Mostly Cloudy 32 0 28 -2 87 87 N 7 11 30.46 1031 10 16 0.00 0.00
9:15 pm 21:15 Cloudy 32 0.1 28 -2 86 86 NW 6 9 30.47 1032 10 16 0.00 0.00
9:35 pm 21:35 Cloudy 32 0 29 -1.8 88 88 NNW 6 9 30.47 1032 10 16 0.00 0.00
9:55 pm 21:55 Cloudy 32 0.2 29 -1.6 88 88 N 5 7 30.47 1032 10 16 0.00 0.00
10:15 pm 22:15 Cloudy 33 0.3 29 -1.6 87 87 N 5 7 30.47 1032 10 16 0.00 0.00
10:35 pm 22:35 Cloudy 33 0.3 29 -1.6 87 87 N 5 7 30.47 1032 10 16 0.00 0.00
10:55 pm 22:55 Cloudy 32 0.2 29 -1.8 87 87 Calm 30.48 1032 10 16 0.00 0.00
11:15 pm 23:15 Cloudy 32 0.1 29 -1.6 88 88 Calm 30.48 1032 10 16 0.00 0.00
11:35 pm 23:35 Cloudy 32 0 29 -1.5 90 90 Calm 30.49 1032 10 16 0.00 0.00
11:55 pm 23:55 Cloudy 32 0 29 -1.5 90 90 Calm 30.48 1032 10 16 0.00 0.00

Powered by AerisWeather